Hourly Weather Rusyliv

Today, 14 April, Wednesday

Time Temperature Precipitation Wind Pressure Humidity
00:00 +6°C° 0 mm 4 mps 728 mmHg 100%
01:00 +5°C° 0 mm 3 mps 727 mmHg 100%
02:00 +5°C° 0 mm 2 mps 729 mmHg 85%
03:00 +3°C° 0 mm 3 mps 728 mmHg 96%
04:00 +3°C° 0.1 mm 3 mps 727 mmHg 98%
05:00 +4°C° 0.2 mm 2 mps 727 mmHg 99%
06:00 +3°C° 0.1 mm 3 mps 727 mmHg 99%
07:00 +2°C° 0.1 mm 3 mps 727 mmHg 100%
08:00 +2°C° 0.1 mm 3 mps 727 mmHg 99%
09:00 +2°C° 0 mm 3 mps 727 mmHg 98%
10:00 +2°C° 0 mm 3 mps 727 mmHg 98%
11:00 +2°C° 0 mm 3 mps 727 mmHg 98%
12:00 +3°C° 0 mm 4 mps 727 mmHg 98%
13:00 +3°C° 0 mm 3 mps 727 mmHg 97%
14:00 +4°C° 0 mm 3 mps 727 mmHg 97%
15:00 +5°C° 0 mm 4 mps 727 mmHg 96%
16:00 +5°C° 0 mm 4 mps 726 mmHg 97%
17:00 +3°C° 0 mm 5 mps 726 mmHg 97%
18:00 +3°C° 0 mm 5 mps 726 mmHg 98%
19:00 +2°C° 0 mm 5 mps 726 mmHg 99%
20:00 +1°C° 0 mm 5 mps 726 mmHg 99%
21:00 +1°C° 0 mm 5 mps 726 mmHg 100%
22:00 0°C° 0.2 mm 5 mps 726 mmHg 100%
23:00 0°C° 0.4 mm 5 mps 726 mmHg 100%

Tomorrow, 15 April, Thursday

Time Temperature Precipitation Wind Pressure Humidity
00:00 -1°C° 0.9 mm 5 mps 726 mmHg 100%
01:00 -1°C° 0.6 mm 5 mps 725 mmHg 100%
02:00 -1°C° 0 mm 5 mps 725 mmHg 100%
03:00 -1°C° 0 mm 5 mps 725 mmHg 100%
04:00 -1°C° 0 mm 4 mps 725 mmHg 100%
05:00 -1°C° 0 mm 4 mps 725 mmHg 100%
06:00 -1°C° 0.1 mm 5 mps 725 mmHg 100%
07:00 -1°C° 0.3 mm 5 mps 726 mmHg 100%
08:00 -1°C° 0.3 mm 5 mps 725 mmHg 100%
09:00 0°C° 0.7 mm 4 mps 726 mmHg 100%
10:00 0°C° 0.8 mm 5 mps 726 mmHg 100%
11:00 +1°C° 0.6 mm 6 mps 725 mmHg 100%
12:00 +2°C° 0.6 mm 6 mps 725 mmHg 100%
13:00 +2°C° 0.2 mm 6 mps 725 mmHg 99%
14:00 +3°C° 0.1 mm 6 mps 725 mmHg 99%
15:00 +3°C° 0.6 mm 7 mps 725 mmHg 99%
16:00 +3°C° 0.1 mm 7 mps 725 mmHg 98%
17:00 +3°C° 0.5 mm 6 mps 725 mmHg 100%
18:00 +2°C° 1.1 mm 7 mps 725 mmHg 100%
19:00 +2°C° 0.6 mm 7 mps 724 mmHg 100%
20:00 0°C° 1.6 mm 8 mps 724 mmHg 100%
21:00 +1°C° 1.3 mm 5 mps 724 mmHg 100%
22:00 +1°C° 1.7 mm 5 mps 724 mmHg 100%
23:00 +1°C° 0 mm 6 mps 723 mmHg 100%

Day after tomorrow, 16 April, Friday

Time Temperature Precipitation Wind Pressure Humidity
00:00 +1°C° 0 mm 5 mps 723 mmHg 100%
01:00 0°C° 0 mm 5 mps 723 mmHg 100%
02:00 0°C° 0 mm 5 mps 723 mmHg 100%
03:00 +1°C° 0.3 mm 4 mps 723 mmHg 100%
04:00 +1°C° 0.8 mm 5 mps 723 mmHg 100%
05:00 +1°C° 0.8 mm 5 mps 723 mmHg 100%
06:00 +2°C° 0.3 mm 5 mps 723 mmHg 100%
07:00 +2°C° 0.4 mm 5 mps 724 mmHg 100%
08:00 +3°C° 0 mm 5 mps 724 mmHg 100%
09:00 +2°C° 1.3 mm 5 mps 725 mmHg 100%
10:00 +3°C° 1.1 mm 6 mps 725 mmHg 100%
11:00 +5°C° 0 mm 7 mps 726 mmHg 99%
12:00 +7°C° 0 mm 6 mps 726 mmHg 98%
13:00 +7°C° 0 mm 6 mps 726 mmHg 97%
14:00 +7°C° 0 mm 6 mps 727 mmHg 98%
15:00 +6°C° 0 mm 7 mps 727 mmHg 96%
16:00 +8°C° 0 mm 7 mps 727 mmHg 97%
17:00 +6°C° 0 mm 7 mps 727 mmHg 96%
18:00 +7°C° 0 mm 6 mps 728 mmHg 97%
19:00 +4°C° 0 mm 7 mps 728 mmHg 96%
20:00 +5°C° 0 mm 5 mps 728 mmHg 99%
21:00 +3°C° 0 mm 6 mps 728 mmHg 99%
22:00 +3°C° 0 mm 5 mps 728 mmHg 99%
23:00 +3°C° 0 mm 5 mps 728 mmHg 100%

17 April, Saturday

Time Temperature Precipitation Wind Pressure Humidity
00:00 +4°C° 0 mm 4 mps 729 mmHg 100%
01:00 +4°C° 0 mm 3 mps 728 mmHg 100%
02:00 +4°C° 0 mm 3 mps 728 mmHg 100%
03:00 +3°C° 0 mm 3 mps 728 mmHg 100%
04:00 +5°C° 0 mm 2 mps 728 mmHg 100%
05:00 +5°C° 0 mm 2 mps 729 mmHg 100%
06:00 +5°C° 0 mm 2 mps 729 mmHg 100%
07:00 +5°C° 0 mm 2 mps 729 mmHg 100%
08:00 +6°C° 0.1 mm 1 mps 730 mmHg 100%
09:00 +7°C° 0 mm 1 mps 730 mmHg 100%
10:00 +7°C° 0 mm 2 mps 730 mmHg 98%
11:00 +8°C° 0 mm 2 mps 730 mmHg 97%
12:00 +9°C° 0 mm 2 mps 730 mmHg 96%
13:00 +10°C° 0 mm 3 mps 730 mmHg 93%
14:00 +12°C° 0 mm 2 mps 730 mmHg 91%
15:00 +12°C° 0 mm 2 mps 730 mmHg 89%
16:00 +13°C° 0 mm 1 mps 730 mmHg 87%
17:00 +13°C° 0 mm 1 mps 730 mmHg 85%
18:00 +13°C° 0 mm 2 mps 730 mmHg 86%
19:00 +12°C° 0 mm 1 mps 730 mmHg 94%
20:00 +10°C° 0 mm 2 mps 730 mmHg 98%
21:00 +9°C° 0 mm 2 mps 730 mmHg 100%
22:00 +10°C° 0 mm 1 mps 730 mmHg 100%
23:00 +8°C° 0 mm 2 mps 730 mmHg 100%

18 April, Sunday

Time Temperature Precipitation Wind Pressure Humidity
00:00 +7°C° 0 mm 2 mps 730 mmHg 100%
01:00 +7°C° 0 mm 2 mps 730 mmHg 100%
02:00 +7°C° 0 mm 2 mps 730 mmHg 100%
03:00 +6°C° 0 mm 2 mps 730 mmHg 100%
04:00 +6°C° 0 mm 2 mps 730 mmHg 100%
05:00 +6°C° 0 mm 2 mps 730 mmHg 100%
06:00 +6°C° 0 mm 2 mps 730 mmHg 100%
07:00 +7°C° 0 mm 2 mps 731 mmHg 100%
08:00 +7°C° 0 mm 2 mps 730 mmHg 100%
09:00 +8°C° 0 mm 3 mps 730 mmHg 100%
10:00 +8°C° 0 mm 3 mps 731 mmHg 100%
11:00 +9°C° 0 mm 3 mps 731 mmHg 100%
12:00 +8°C° 0 mm 4 mps 731 mmHg 100%
13:00 +9°C° 0 mm 5 mps 731 mmHg 98%
14:00 +10°C° 0 mm 5 mps 731 mmHg 95%
15:00 +12°C° 0 mm 5 mps 731 mmHg 95%
16:00 +13°C° 0 mm 6 mps 730 mmHg 90%
17:00 +13°C° 0 mm 6 mps 731 mmHg 89%
18:00 +11°C° 0 mm 6 mps 731 mmHg 94%
19:00 +10°C° 0 mm 6 mps 731 mmHg 96%
20:00 +10°C° 0 mm 6 mps 731 mmHg 98%
21:00 +9°C° 0.2 mm 6 mps 731 mmHg 100%
22:00 +9°C° 1.2 mm 5 mps 731 mmHg 100%
23:00 +8°C° 0.7 mm 6 mps 731 mmHg 100%

19 April, Monday

Time Temperature Precipitation Wind Pressure Humidity
00:00 +8°C° 1.2 mm 6 mps 731 mmHg 100%
01:00 +8°C° 0.7 mm 6 mps 731 mmHg 100%
02:00 +8°C° 0.9 mm 6 mps 731 mmHg 100%
03:00 +8°C° 0.6 mm 7 mps 731 mmHg 100%
04:00 +7°C° 0.5 mm 6 mps 731 mmHg 100%
05:00 +7°C° 0.2 mm 6 mps 731 mmHg 100%
06:00 +7°C° 0 mm 5 mps 731 mmHg 100%
07:00 +7°C° 0 mm 5 mps 732 mmHg 100%
08:00 +7°C° 0.1 mm 6 mps 732 mmHg 100%
09:00 +7°C° 0 mm 5 mps 732 mmHg 100%
10:00 +7°C° 0 mm 5 mps 732 mmHg 100%
11:00 +9°C° 0 mm 6 mps 732 mmHg 99%
12:00 +10°C° 0 mm 7 mps 733 mmHg 93%
13:00 +10°C° 0.1 mm 6 mps 732 mmHg 98%
14:00 +12°C° 0.6 mm 5 mps 731 mmHg 98%
15:00 +13°C° 0 mm 6 mps 730 mmHg 96%
16:00 +12°C° 0 mm 7 mps 730 mmHg 94%
17:00 +12°C° 0.2 mm 7 mps 729 mmHg 94%
18:00 +11°C° 0 mm 8 mps 729 mmHg 93%
19:00 +11°C° 0 mm 8 mps 729 mmHg 94%
20:00 +10°C° 0 mm 7 mps 729 mmHg 96%
21:00 +10°C° 0 mm 8 mps 728 mmHg 98%
22:00 +9°C° 0 mm 7 mps 728 mmHg 97%
23:00 +9°C° 0 mm 7 mps 728 mmHg 98%
Show more